カタログに戻る

STARLINK-6376

運用中通信VLEO
NORAD 57349·PAYLOAD·🇺🇸 United States

打ち上げ Jul 16, 2023 から Cape Canaveral Space Force Station

Loading…

次のパス (今後24時間)

TLE

最新Source: CelesTrak SupGP

元期: Sep 14, 2026, 22:22 UTC

1 57349C 23099X   26257.93243056  .00027012  00000+0  97861-3 0  2577
2 57349  42.9992 260.1235 0001405 262.3126 329.9704 15.27556803    13

AllMySatでSTARLINK-6376をリアルタイム追跡

Download on the App Store